Location: Bercimuel
(41.3983°N, 3.5711°W)
Time: 10:48:37
(UTC+00:00)

Cosmos 2180 Rocket - Pass Details

Date: 15 May 2026
Orbit: 954 x 1003 km, 82.9° (Epoch: 6 June)

Event Time Altitude Azimuth Distance (km) Brightness Sun altitude
Exits shadow 23:32:26 84° 150° (SSE) 992 4.3 -28.9°
Maximum altitude 23:32:38 86° 97° (E) 989 4.4 -28.9°
Drops below altitude 10° 23:38:59 10° 8° (N) 2,759 7.7 -29.1°
Sets 23:41:32 0° 8° (N) 3,718 8.6 -29.2°
